Regional Weather Roundup
Issued by NWS

Home | Current Version | Previous Version | Text Only | Print | Product List | Glossary On
Versions: 1 2 3 4 5 6 7 8 9 10 11 12 13 14 15 16 17 18 19 20 21 22 23 24 25 26 27 28 29 30 31 32 33 34 35 36 37 38 39 40 41 42 43 44 45 46 47 48 49 50
000
ASUS43 KDTX 261601
RWRMI
MICHIGAN HOURLY REGIONAL WEATHER ROUNDUP
NATIONAL WEATHER SERVICE DETROIT/PONTIAC MI
1200 PM EDT SUN MAR 26 2017

NOTE: "FAIR" INDICATES FEW OR NO CLOUDS BELOW 12,000 FEET WITH NO
SIGNIFICANT WEATHER AND/OR OBSTRUCTION TO VISIBILITY.

MIZ047>049-052>055-059>063-066>070-074>076-081>083-261700-
SOUTHEAST LOWER MICHIGAN

CITY           SKY/WX    TMP DP  RH WIND       PRES   REMARKS
ADRIAN         LGT RAIN  41  40  96 SE10      29.98F FOG
ALMA           CLOUDY    41  40  98 E10       29.98F FOG
ANN ARBOR      RAIN      42  42 100 E6        30.00F FOG
BAD AXE        CLOUDY    43  39  86 E8        30.01F
CARO           LGT RAIN  44  40  88 SE5       30.00S
DETROIT CITY   LGT RAIN  44  41  89 SE5       30.03R
DETROIT        RAIN      44  41  89 NE7       30.00F FOG
FLINT          CLOUDY    46  43  89 S13G22    30.00R
GROSSE ILE     LGT RAIN  42  40  94 CALM      29.99F
HILLSDALE      LGT RAIN  41  41 100 E9        29.94F
HOWELL         HVY RAIN  43  41  92 E5        29.97S

CITY           SKY/WX    TMP DP  RH WIND       PRES   REMARKS
JACKSON        LGT RAIN  44  41  89 SE12      29.96F
LAMBERTVILLE   LGT RAIN  41  39  93 E5        29.98F
LANSING        CLOUDY    45  40  82 E13       29.97S
LAPEER         CLOUDY    45  42  90 SE5       30.00S
MASON          RAIN      43  42  95 E6        29.96F
MONROE         RAIN      40  40  98 SE5       30.00S
MT. CLEMENS    LGT RAIN  45  43  93 SE7       30.00S
PONTIAC        CLOUDY    43  39  86 SE8       29.99R
PORT HOPE        N/A     36  34  92 E8        30.01F WCI  30
TRI CITIES     RAIN      41  39  93 E9        30.01R FOG
MIDLAND        CLOUDY    40  36  86 E8        30.00S WCI  34
TROY           CLOUDY    45  39  80 SE7       30.04R
SAGINAW HB     MIX PCPN  43  37  81 E6        29.99F
$$
MIZ043>046-050>051-056>058-064>065-071>073-077>080-261700-
SOUTHWEST LOWER MICHIGAN

CITY           SKY/WX    TMP DP  RH WIND       PRES   REMARKS
BATTLE CREEK   LGT RAIN  46  45  96 SE5       29.92F FOG
BENTON HARBOR  LGT RAIN  52  49  89 SE8       29.88F
BIG RAPIDS     MIX PCPN  38  37  93 E7        29.94F WCI  33
COLDWATER      RAIN      45  45 100 SE9       29.94S
FREMONT        CLOUDY    42  41  98 E9        29.89F FOG
HOLLAND        HVY RAIN  46  44  93 E10       29.91R VSB 1
GRAND RAPIDS   LGT RAIN  43  42  97 E13       29.92S FOG
IONIA          LGT RAIN  41  40  97 E8        29.93F
KALAMAZOO      LGT RAIN  48  45  89 SE3       29.92S FOG
LUDINGTON      CLOUDY    43  42  99 E9        29.90F FOG
MARSHALL       DRIZZLE   46  45  97 E9        29.92F
MOUNT PLEASANT DRIZZLE   39  37  94 E5        29.98F
MUSKEGON       CLOUDY    46  43  89 E9        29.89F
SOUTH HAVEN    CLOUDY    48  48  99 SE7       29.89F
$$
MIZ016>042-261700-
NORTHERN LOWER MICHIGAN

CITY           SKY/WX    TMP DP  RH WIND       PRES   REMARKS
ALPENA         CLOUDY    37  36  96 E12       30.05F WCI  29
BEAVER ISLAND  CLOUDY    34  34 100 E12G17    30.00F WCI  25
BELLAIRE       FLURRIES  42  38  87 E5        29.97F
CADILLAC       LGT RAIN  38  37  97 SE9       29.95R WCI  32
CHARLEVOIX     CLOUDY    37  37 100 E8        29.99F WCI  31
FRANKFORT      LGT RAIN  42  39  89 CALM      29.94S
GAYLORD        LGT RAIN  37  33  85 VRB5      29.96F FOG     WCI  33
GRAYLING       CLOUDY    37  37 100 E9        29.98F FOG     WCI  31
HARBOR SPRINGS DRIZZLE   35  34  99 NE13      29.99F WCI  26
HOUGHTON LAKE  CLOUDY    39  37  92 E8        29.98F WCI  33
MANISTEE       LGT RAIN  43  41  93 E8        29.92F
OSCODA         CLOUDY    40  36  84 E6        30.03F
PELLSTON       LGT RAIN  35  32  88 E8        30.02F WCI  29
ROGERS CITY    MIX PCPN  36  34  92 SE9         N/A  WCI  29
TRAVERSE CITY  CLOUDY    42  38  85 SE6       29.95F
$$
MIZ007>008-015-261700-
EASTERN UPPER MICHIGAN

CITY           SKY/WX    TMP DP  RH WIND       PRES   REMARKS
KINROSS        FLURRIES  31  30  96 E17G25    30.05F WCI  19
MACKINAC ISLAN CLOUDY    33  33 100 E15G24    30.03F WCI  22
NEWBERRY       CLOUDY    32  31  96 E8        30.01F WCI  25
S. S. MARIE    FRZ RAIN  33  30  88 SE7       30.06F WCI  27
MUNISING         N/A     35  34  96 S9        29.99F WCI  28
$$
MIZ004>006-011>014-085-261700-
CENTRAL UPPER MICHIGAN

CITY           SKY/WX    TMP DP  RH WIND       PRES   REMARKS
ESCANABA       LGT RAIN  34  34 100 E6        30.00S WCI  29
MENOMINEE        N/A    N/A N/A N/A MISG        N/A
SAWYER-GWINN   FOG       32  32 100 SE5       29.97F VSB 1/2 WCI  27
$$
MIZ001>003-009>011-084-261700-
WESTERN UPPER MICHIGAN

CITY           SKY/WX    TMP DP  RH WIND       PRES   REMARKS
IRON MOUNTAIN  FOG       32  30  92 NE5       29.95F VSB 1/2 WCI  27
HOUGHTON       FOG       32  30  92 E8        29.97F VSB 1/4 WCI  25
COPPER HARBOR    N/A     34  32  92 S8        30.00S WCI  27
IRONWOOD       CLOUDY    36  35  96 NW3       29.96F
$$

ABBREVIATIONS USED IN REMARKS
   TC - TEMPERATURE IN CELSIUS
  WCI - WIND CHILL INDEX
   HX - HEAT INDEX
  VSB - VISIBILITY




USA.gov is the U.S. government's official web portal to all federal, state and local government web resources and services.